Regional Weather Roundup
Issued by NWS

Home | Current Version | Previous Version | Graphics & Text | Print | Product List | Glossary On
Versions: 1 2 3 4 5 6 7 8 9 10 11 12 13 14 15 16 17 18 19 20 21 22 23 24 25 26 27 28 29 30 31 32 33 34 35 36 37
000
ASUS43 KDMX 221107
RWRIA

WEATHER ROUNDUP FOR IOWA
NATIONAL WEATHER SERVICE DES MOINES IA
600 AM CDT WED OCT 22 2014

NOTE: "FAIR" INDICATES FEW OR NO CLOUDS BELOW 12,000 FEET WITH NO
SIGNIFICANT WEATHER AND/OR OBSTRUCTIONS TO VISIBILITY.

* - THESE STATIONS ARE NOT NWS STATIONS...THUS NOT UNDER NWS
QUALITY CONTROL.  THEY ALSO DO NOT REPORT WEATHER SUCH
AS PRECIPITATION OR FOG.

IAZ001>003-012>014-020>022-031>034-043>046-221200-
   NORTHWEST IOWA

CITY           SKY/WX    TMP DP  RH WIND       PRES   REMARKS
CARROLL *      CLOUDY    46  41  81 SE9       30.15F
CHEROKEE *     CLEAR     48  43  81 S9        30.10S
DENISON *      CLOUDY    52  43  71 SE13      30.10S
LE MARS *      CLEAR     54  45  71 SE12G21   30.05R
ORANGE CITY *  CLEAR     54  45  71 SE12      30.05S
SHELDON *      CLOUDY    52  43  71 SE21G28   30.05S
SIOUX CITY     MOCLDY    54  45  71 SE10      30.06S
SPENCER        CLOUDY    50  40  68 SE20      30.12R
STORM LAKE *   CLOUDY    46  41  81 SE17      30.12S
$$

IAZ055>058-069>071-079>083-090>094-221200-
   SOUTHWEST IOWA

CITY           SKY/WX    TMP DP  RH WIND       PRES   REMARKS
ATLANTIC *     CLOUDY    52  43  71 S10       30.15S
AUDUBON *      PTCLDY    50  39  66 SE12      30.16S
CLARINDA *     CLOUDY    54  45  71 SE8       30.17S
COUNCIL BLFS * MOCLDY    54  46  76 SE12      30.11R
CRESTON *      MOCLDY    46  41  81 SE10      30.19R
HARLAN  *      CLOUDY    52  45  76 SE10G17   30.16S
LAMONI         CLOUDY    47  40  76 VRB7      30.21R
RED OAK *      MOCLDY    54  45  71 SE8       30.15R
SHENANDOAH *     N/A     54  45  71 SE9       30.14R
$$

IAZ047>049-059>061-072>074-084-221200-
   CENTRAL IOWA

CITY           SKY/WX    TMP DP  RH WIND       PRES   REMARKS
AMES           CLEAR     41  37  86 SE9       30.22R
ANKENY *       CLEAR     43  39  87 SE8       30.22S
CHARITON *     MOCLDY    45  39  81 SE10      30.22R
DES MOINES     PTCLDY    45  38  76 SE9       30.22R
GRINNELL*      CLEAR     37  36  93 E7        30.26R WCI  32
KNOXVILLE *    CLEAR     41  37  87 SE10      30.23R
MARSHALLTOWN   CLEAR     40  37  89 SE14      30.24R WCI  32
PELLA *        CLEAR     39  37  93 SE8       30.26R WCI  34
PERRY *          N/A     45  39  81 SE9       30.19S
$$

IAZ004>006-015-016-023>025-035-036-221200-
   NORTH CENTRAL IOWA

CITY           SKY/WX    TMP DP  RH WIND       PRES   REMARKS
ALGONA *       MOCLDY    43  39  87 SE14G21   30.17S
CLARION *      CLEAR     41  39  93 SE15      30.20S
ESTHERVILLE    MOCLDY    43  38  82 S18       30.14R
FORT DODGE *   MOCLDY    45  36  70 SE10G16   30.19R
MASON CITY     CLEAR     39  37  92 SE15      30.23S WCI  31
FOREST CITY *  CLEAR     39  37  93 SE10      30.21R WCI  32
IOWA FALLS *     N/A     39  37  93 SE10      30.24R WCI  32
$$

IAZ007>011-017>019-026>030-037>042-050>054-066-221200-
   NORTHEAST IOWA

CITY           SKY/WX    TMP DP  RH WIND       PRES   REMARKS
CEDAR RAPIDS   CLEAR     35  34  96 E5        30.28R WCI  31
CHARLES CITY * CLEAR     37  36  93 SE9       30.27R WCI  31
CLINTON *      CLEAR     34  30  86 E8        30.33S WCI  27
DECORAH *      CLEAR     36  36 100 SE8       30.27S WCI  29
DUBUQUE        PTCLDY    36  34  92 CALM      30.30R
MONTICELLO *   CLEAR     34  32  93 CALM      30.30R
OELWEIN *      CLEAR     37  36  93 SE9       30.29R WCI  31
WATERLOO       CLEAR     35  33  92 SE7       30.27R WCI  29
$$

IAZ064-065-067-068-078-221200-
   EAST CENTRAL IOWA

CITY           SKY/WX    TMP DP  RH WIND       PRES   REMARKS
DAVENPORT      PTCLDY    35  31  85 E8        30.30S WCI  29
IOWA CITY      CLEAR     37  35  92 E6        30.31R WCI  32
MT. PLEASANT * CLEAR     34  34 100 E3        30.29R FOG
MUSCATINE *    CLEAR     34  32  93 CALM      30.31S
QUAD CITIES    PTCLDY    31  29  92 E6        30.30S WCI  25
$$

IAZ062-063-075>077-085>089-095>099-221200-
   SOUTHEAST IOWA

CITY           SKY/WX    TMP DP  RH WIND       PRES   REMARKS
BURLINGTON     CLEAR     40  37  89 SE5       30.29R
FAIRFIELD *      N/A     37  36  93 SE6       30.28R WCI  33
FORT MADISON * CLEAR     43  39  87 E5        30.29S
KEOKUK *       CLEAR     41  39  93 E8        30.28R
OSKALOOSA *      N/A     37  36  93 SE6       30.27R WCI  33
CENTERVILLE *  CLEAR     41  39  93 E6        30.25S
WASHINGTON *   CLEAR     36  36 100 SE5       30.29R WCI  32
$$

ABBREVIATIONS USED IN REMARKS
   TC - TEMPERATURES IN CELSIUS
  WCI - WIND CHILL INDEX
   HX - HEAT INDEX
  VSB - VISIBILITY
$$




USA.gov is the U.S. government's official web portal to all federal, state and local government web resources and services.